Location: Unspecified
(0.0000°N, 0.0000°E)
Time: 13:42:50
(UTC+00:00)

A-11 Canister half - Pass Details

Date: 22 November 2019
Orbit: 1526 x 1683 km, 47.3° (Epoch: 08 December)

Event Time Altitude Azimuth Distance (km) Brightness Sun altitude
Rises 22:07:26 0° 273° (W) 4,671 11.8 -58.5°
Reaches altitude 10° 22:13:27 10° 244° (WSW) 3,691 11.3 -59.6°
Maximum altitude 22:16:25 12° 224° (SW) 3,556 11.2 -60.2°
Drops below altitude 10° 22:19:25 10° 205° (SSW) 3,706 11.3 -60.7°
Sets 22:25:35 0° 175° (S) 4,716 11.8 -61.8°
